#timestamp,LO_Frequency,Hit,StdDev 
1512637215.6,286046993.6,N
1512637235.4,286046995.9,N
1512637255.2,286046997.8,N
1512637275.1,286046995.3,N
1512637276.0,286046995.3,N
1512637295.8,286046997.6,N
1512637315.7,286046995.9,N
1512637335.5,286046997.3,N
1512637355.3,286046999.5,N
1512637375.2,286046997.0,N
1512637395.0,286046996.8,N
1512637395.9,286046996.8,N
1512637415.8,286046997.1,N
1512637435.6,286046995.5,N
1512637455.4,286046995.2,N
1512637475.3,286046997.5,N
1512637495.1,286046997.8,N
1512637515.8,286046995.6,N
1512637535.7,286046993.8,N
1512637555.5,286046993.6,Y
1512637575.4,286046997.5,P
1512637595.2,286046996.8,P
1512637615.0,286046997.3,P
1512637615.9,286046997.3,Y
1512637635.8,286046998.9,P
1512637655.6,286046998.6,N
1512637675.5,286046999.4,N
1512637695.3,286046997.0,Y
1512637715.1,286047001.1,P
1512637735.9,286047001.5,N
1512637755.7,286047002.2,N
1512637775.5,286047002.7,N
1512637795.4,286047002.6,N
1512637815.2,286047000.5,N
1512637835.1,286047001.0,N
1512637836.0,286047001.0,N
1512637855.8,286046999.1,N
1512637875.6,286047000.8,N
1512637895.5,286046998.2,N
1512637915.3,286047000.5,N
1512637935.2,286047000.6,N
1512637955.9,286047001.2,N
1512637975.7,286047000.5,N
1512637995.6,286047001.2,N
1512638015.4,286046999.0,N
1512638035.2,286047000.3,N
1512638055.1,286047002.0,N
1512638056.0,286047002.0,N
1512638075.8,286047001.6,N
1512638095.7,286047003.9,Y
1512638115.5,286047003.4,P
1512638135.3,286047001.6,N
1512638155.2,286047001.5,N
1512638175.0,286047004.2,Y
1512638175.9,286047004.2,P
1512638195.8,286047001.6,N
1512638215.6,286047004.0,P
1512638235.4,286047001.3,N
1512638255.3,286047004.4,Y
1512638275.1,286046998.3,P
1512638295.9,286046997.6,N
1512638315.7,286046997.4,N
1512638335.5,286046997.3,N
1512638355.4,286046997.7,N
1512638375.2,286046995.2,N
1512638395.0,286046995.2,N
1512638395.9,286046995.2,N
1512638415.8,286046996.0,N
1512638435.6,286046994.4,N
1512638455.5,286046994.1,N
1512638475.3,286046995.8,N
1512638495.1,286046995.5,N
1512638515.9,286046995.3,N
1512638535.7,286046997.4,N
1512638555.6,286046997.6,N
1512638575.4,286046997.9,N
1512638595.2,286046996.3,N
1512638615.1,286046994.1,Y
1512638616.0,286046994.1,P
1512638635.8,286046999.4,N
1512638655.7,286046999.2,N
1512638675.5,286047001.2,N
1512638695.3,286047000.4,N
1512638715.2,286047000.3,N
1512638735.0,286047000.6,N
1512638735.9,286047000.6,N
1512638755.7,286047000.4,N
1512638775.6,286047001.0,N
1512638795.4,286047000.0,N
1512638815.3,286047002.6,N
1512638835.1,286047001.4,N
1512638836.0,286047001.4,N
1512638855.8,286047001.5,N
1512638875.7,286047002.1,N
1512638895.5,286046999.9,N
1512638915.4,286046998.9,N
1512638935.2,286046999.4,N
1512638955.0,286046998.6,N
1512638955.9,286046998.6,N
1512638975.8,286046998.7,N
1512638995.6,286046998.7,N
1512639015.5,286046998.2,N
1512639035.3,286047000.3,N
1512639055.1,286046999.8,N
1512639075.9,286047002.6,N
1512639095.7,286047002.3,N
1512639115.6,286047002.8,N
1512639135.4,286047000.4,N
1512639155.2,286046998.8,N
1512639175.1,286046999.3,N
1512639176.0,286046999.3,N
1512639195.8,286046998.5,N
1512639215.6,286046999.2,N
1512639235.5,286046998.4,N
1512639255.3,286046998.3,N
1512639275.2,286046998.6,N
1512639295.9,286046998.3,N
1512639315.7,286047000.7,N
1512639335.6,286047000.2,N
1512639355.4,286047000.0,N
1512639375.3,286047001.2,N
1512639395.1,286046998.1,N
1512639396.0,286046998.1,N
1512639415.8,286046998.6,N
1512639435.7,286046998.2,N
1512639455.5,286047000.9,N
1512639475.3,286047000.8,N
1512639495.2,286046998.6,N
1512639515.0,286046999.0,N
1512639515.9,286046999.0,N
1512639535.8,286046998.6,N
1512639555.6,286046998.8,N
1512639575.4,286047000.7,N
1512639595.3,286046998.6,N
1512639615.1,286046998.8,N
1512639635.9,286046998.3,N
1512639655.7,286047001.1,N
1512639675.5,286047000.7,N
1512639695.4,286047001.0,N
1512639715.2,286046999.2,N
1512639735.1,286046998.8,N
1512639736.0,286046998.8,N
1512639755.8,286046998.4,N
1512639775.6,286047001.1,N
1512639795.5,286047000.1,N
1512639815.3,286046998.5,N
1512639835.2,286046998.5,N
1512639855.9,286046999.2,N
1512639875.7,286046996.7,Y
1512639895.6,286046998.9,P
1512639915.4,286046997.1,P
1512639935.2,286047000.8,N
1512639955.1,286047000.8,N
1512639956.0,286047000.8,N
1512639975.8,286047000.6,N
1512639995.7,286047000.5,N
1512640015.5,286047000.4,N
1512640035.3,286047001.9,N
1512640055.2,286047001.9,N
1512640075.0,286047001.7,N
1512640075.9,286047001.7,N
1512640095.8,286047002.2,N
1512640115.6,286047000.2,N
1512640135.4,286047000.0,N
1512640155.3,286046998.1,N
1512640175.1,286046999.9,N
1512640195.8,286046999.7,N
1512640215.7,286047002.5,N
1512640235.5,286046998.6,N
1512640255.3,286046998.9,N
1512640275.2,286047000.7,N
1512640295.0,286047000.4,N
1512640295.9,286047000.4,N
1512640315.8,286046998.2,N
1512640335.6,286047001.0,N
1512640355.4,286046998.2,N
1512640375.3,286046998.9,N
1512640395.1,286046999.5,N
1512640415.9,286046998.9,N
1512640435.7,286046998.3,N
1512640455.5,286047000.9,N
1512640475.4,286046999.7,N
1512640495.2,286047002.4,N
1512640515.0,286046999.9,N
1512640515.9,286046999.9,N
1512640535.8,286046998.4,N
1512640555.6,286047001.1,N
1512640575.5,286046999.8,N
1512640595.3,286047000.2,N
1512640615.1,286047001.1,N
1512640635.9,286046999.8,N
1512640655.7,286047000.3,N
1512640675.5,286047001.5,N
1512640695.4,286047004.3,Y
1512640715.2,286047000.6,P
1512640735.1,286047000.2,N
1512640736.0,286047000.2,N
1512640755.8,286047000.7,N
1512640775.6,286046998.3,Y
1512640795.5,286046999.7,P
